N622CG KISP-KLGA

Flight info

Callsign N622CG
Flight time 0h 18m
Altitude VFR
Route VFR FF
Aircraft P28A/L-VGD/C

Departure

Time 2026-05-08 22:57
Airport Long Island MacArthur Airport (KISP)

Arrival

Time 2026-05-08 23:15
Airport LaGuardia Airport (KLGA)
Time Latitude Longitude Altitude Speed Heading
2026-05-08 22:52 40.79803 -73.10819 95 ft 0 kts 91°
2026-05-08 22:53 40.79803 -73.10781 95 ft 13 kts 89°
2026-05-08 22:54 40.79846 -73.10720 96 ft 10 kts
2026-05-08 22:54 40.79937 -73.10722 97 ft 16 kts 356°
2026-05-08 22:54 40.80012 -73.10675 99 ft 13 kts 110°
2026-05-08 22:54 40.79950 -73.10576 97 ft 9 kts 121°
2026-05-08 22:55 40.79859 -73.10463 95 ft 28 kts 135°
2026-05-08 22:55 40.79739 -73.10308 92 ft 15 kts 136°
2026-05-08 22:55 40.79712 -73.10271 91 ft 0 kts 136°
2026-05-08 22:55 40.79684 -73.10236 92 ft 14 kts 140°
2026-05-08 22:56 40.79654 -73.10221 92 ft 0 kts 201°
2026-05-08 22:56 40.79608 -73.10268 93 ft 34 kts 225°
2026-05-08 22:56 40.79336 -73.10624 97 ft 85 kts 225°
2026-05-08 22:57 40.78899 -73.11229 323 ft 95 kts 226°
2026-05-08 22:57 40.78456 -73.11846 548 ft 100 kts 227°
2026-05-08 22:57 40.78010 -73.12534 761 ft 105 kts 243°
2026-05-08 22:57 40.78029 -73.13486 797 ft 121 kts 286°
2026-05-08 22:58 40.78313 -73.14608 833 ft 125 kts 289°
2026-05-08 22:58 40.78619 -73.15689 853 ft 123 kts 291°
2026-05-08 22:58 40.78939 -73.16692 999 ft 108 kts 293°
2026-05-08 22:58 40.79233 -73.17519 1025 ft 104 kts 296°
2026-05-08 22:59 40.79516 -73.18368 1092 ft 98 kts 281°
2026-05-08 22:59 40.79453 -73.19287 1067 ft 103 kts 255°
2026-05-08 22:59 40.79259 -73.20196 1006 ft 101 kts 254°
2026-05-08 22:59 40.79082 -73.21084 956 ft 99 kts 256°
2026-05-08 23:00 40.78909 -73.21958 922 ft 97 kts 255°
2026-05-08 23:00 40.78726 -73.22820 882 ft 97 kts 254°
2026-05-08 23:00 40.78545 -73.23650 873 ft 94 kts 254°
2026-05-08 23:00 40.78177 -73.24328 859 ft 93 kts 215°
2026-05-08 23:01 40.77564 -73.24682 779 ft 99 kts 200°
2026-05-08 23:01 40.76902 -73.24982 626 ft 106 kts 195°
2026-05-08 23:01 40.76209 -73.25212 639 ft 98 kts 192°
2026-05-08 23:01 40.75565 -73.25349 637 ft 95 kts 187°
2026-05-08 23:02 40.74925 -73.25425 648 ft 92 kts 184°
2026-05-08 23:02 40.74295 -73.25469 620 ft 93 kts 182°
2026-05-08 23:02 40.73652 -73.25487 630 ft 90 kts 181°
2026-05-08 23:02 40.73026 -73.25472 640 ft 89 kts 178°
2026-05-08 23:03 40.72371 -73.25404 594 ft 101 kts 173°
2026-05-08 23:03 40.71655 -73.25467 607 ft 104 kts 204°
2026-05-08 23:03 40.71019 -73.25899 696 ft 102 kts 207°
2026-05-08 23:03 40.70326 -73.26420 719 ft 126 kts 216°
2026-05-08 23:04 40.69687 -73.27307 710 ft 139 kts 233°
2026-05-08 23:04 40.69163 -73.28399 779 ft 142 kts 243°
2026-05-08 23:04 40.68874 -73.29544 876 ft 142 kts 253°
2026-05-08 23:04 40.68624 -73.30729 955 ft 123 kts 255°
2026-05-08 23:05 40.68405 -73.31775 1023 ft 117 kts 254°
2026-05-08 23:05 40.68086 -73.32719 1071 ft 116 kts 244°
2026-05-08 23:05 40.67712 -73.33774 1035 ft 136 kts 245°
2026-05-08 23:05 40.67341 -73.34950 1029 ft 141 kts 250°
2026-05-08 23:06 40.66986 -73.36190 859 ft 153 kts 248°
2026-05-08 23:06 40.66572 -73.37543 124 ft 170 kts 250°
2026-05-08 23:06 40.66267 -73.38868 577 ft 131 kts 253°
2026-05-08 23:06 40.65993 -73.40019 686 ft 133 kts 251°
2026-05-08 23:07 40.65714 -73.41231 296 ft 143 kts 257°
2026-05-08 23:07 40.65548 -73.42386 751 ft 126 kts 259°
2026-05-08 23:07 40.65408 -73.43562 851 ft 134 kts 263°
2026-05-08 23:07 40.65295 -73.44780 971 ft 125 kts 262°
2026-05-08 23:08 40.65186 -73.45879 1019 ft 130 kts 261°
2026-05-08 23:08 40.65044 -73.47105 1046 ft 141 kts 261°
2026-05-08 23:08 40.64904 -73.48321 981 ft 134 kts 261°
2026-05-08 23:08 40.64799 -73.49545 1036 ft 139 kts 263°
2026-05-08 23:09 40.64699 -73.50764 1017 ft 140 kts 263°
2026-05-08 23:09 40.64580 -73.52037 926 ft 141 kts 261°
2026-05-08 23:09 40.64449 -73.53315 853 ft 139 kts 262°
2026-05-08 23:09 40.64334 -73.54513 946 ft 129 kts 262°
2026-05-08 23:10 40.64210 -73.55703 966 ft 135 kts 261°
2026-05-08 23:10 40.64085 -73.56934 1045 ft 135 kts 261°
2026-05-08 23:10 40.63929 -73.58174 1002 ft 144 kts 260°
2026-05-08 23:10 40.63745 -73.59465 1002 ft 149 kts 258°
2026-05-08 23:11 40.63534 -73.60806 1002 ft 151 kts 257°
2026-05-08 23:11 40.63377 -73.61682 1001 ft 152 kts 256°
2026-05-08 23:11 40.63002 -73.63521 1068 ft 150 kts 253°
2026-05-08 23:11 40.62695 -73.64825 1117 ft 150 kts 251°
2026-05-08 23:12 40.62320 -73.66087 1082 ft 154 kts 247°
2026-05-08 23:12 40.61897 -73.67395 919 ft 158 kts 244°
2026-05-08 23:12 40.61468 -73.68527 968 ft 119 kts 242°
2026-05-08 23:12 40.61096 -73.69427 981 ft 115 kts 241°
2026-05-08 23:13 40.60739 -73.70405 950 ft 124 kts 253°
2026-05-08 23:13 40.60649 -73.71160 938 ft 129 kts 267°
2026-05-08 23:13 40.60724 -73.72194 958 ft 119 kts 283°
2026-05-08 23:13 40.61113 -73.73253 928 ft 111 kts 296°
2026-05-08 23:14 40.61328 -73.73769 880 ft 108 kts 298°
2026-05-08 23:14 40.61791 -73.74907 685 ft 105 kts 297°
2026-05-08 23:14 40.62033 -73.75476 530 ft 105 kts 298°
2026-05-08 23:14 40.62375 -73.76245 314 ft 93 kts 299°
2026-05-08 23:15 40.62684 -73.76935 175 ft 86 kts 298°
2026-05-08 23:15 40.62979 -73.77578 94 ft 77 kts 299°
2026-05-08 23:15 40.63196 -73.78051 38 ft 70 kts 298°
2026-05-08 23:15 40.63401 -73.78495 16 ft 48 kts 300°
2026-05-08 23:16 40.63525 -73.78787 17 ft 33 kts 294°
2026-05-08 23:16 40.63628 -73.78961 18 ft 24 kts 295°
2026-05-08 23:16 40.63694 -73.79146 16 ft 21 kts 301°
2026-05-08 23:16 40.63761 -73.79293 15 ft 15 kts 308°
2026-05-08 23:17 40.63822 -73.79319 15 ft 12 kts 37°
2026-05-08 23:17 40.63819 -73.79239 15 ft 4 kts 99°
2026-05-08 23:17 40.63818 -73.79235 15 ft 0 kts 98°